PreDB.eu

music predb - trance, techno, house, hardstyle, hardcore
updated: 2021-01-28 09:36:15
JAN 47 GB 955 RFEB 42 GB 1027 RMAR 51 GB 1269 RAPR 65 GB 1295 RMAY 71 GB 1508 RJUN 50 GB 1029 RJUL 70 GB 1280 RAUG 38 GB 890 RSEP 44 GB 782 ROCT 44 GB 1054 RNOV 51 GB 968 RDEC 56 GB 919 R
2021-01-20 19:46:48Trance624Daftiser-Avenger_EP-(ASR263)-WEB-2020-AFO
2021-01-20 19:46:30Trance629FAWZY_and_Issam_Boufhigua-Fennas_Theme-(NRG042)-WEB-2020-AFO
2021-01-20 19:29:28Trance1079DJ_Fiddle_89-2021-WEB-2021-wAx
2021-01-20 18:55:10Trance831Industrial_Twins-This_World_Is_Changing-(KARNAGEDGITA19)-WEB-2021-AFO
2021-01-20 18:54:53Trance512David_Forbes-Chameleon-(ARD125)-SINGLE-WEB-2021-AFO
2021-01-20 18:53:08Trance621Amos_and_Riot_Night_vs_Destia_and_Sue_McLaren-The_Answer-(DIT016)-WEB-2021-AFO
2021-01-20 18:51:15Trance516Nakhiya-Quantum_Status-(SR395)-SINGLE-WEB-2021-AFO
2021-01-20 13:07:11Trance511Dmitriy_Timofeev-Symphony_Of_North-(YL141)-SINGLE-WEB-2021-AFO
2021-01-20 13:05:06Trance728SICKCODE-Solitary-(PVM153)-WEB-2021-AFO
2021-01-20 13:00:54Trance615SpaceLine_and_U_Mount-After_Summer-(LSR044)-WEB-2021-AFO
2021-01-20 11:07:10Trance623Arentis-To_The_Future_With_You-(ABPR031)-WEB-2021-AFO
2021-01-20 07:37:47Trance7112Sandro_Mireno_-_In_Our_Memory-(ABSK082)-WEB-FLAC-2021
2021-01-20 07:25:59Trance1041451VA_-_Trance_Hype_Top_100_2021-WEB-2021
2021-01-20 07:25:03Trance625Tasso_-_If_You_Want-(FSOEC062)-WEB-2019-MMS
2021-01-20 02:30:13TranceEddy_Rave_-_Energy_Source_(The_Remixes)-WEB-2012-iDC
2021-01-20 01:29:11Trance634Flatlex_-_Afterimage-(UA117)-WEB-2021-ZzZz
2021-01-19 22:19:45Trance416Amplify_(MX)_and_Ital-Ixchel-(ANTEP153)-SINGLE-WEB-2021-wAx
2021-01-19 22:10:22Trance19169VA-Infrasonic_Amsterdam_Dance_Event_2020-(INFRASONICADE20)-WEB-2020-AFO
2021-01-19 22:08:08Trance54722VA-Pure_Trance_Vol_2_50_Trance_Classics-(DISCFDPUTR02BB)-WEB-2020-AFO
2021-01-19 22:06:13Trance419Kalki_and_Lunarave-Another_State_Of_Matter-(TSR0145)-SINGLE-WEB-2021-wAx
2021-01-19 22:02:28Trance955VA-VIBRATE_100_(Part_2)-(VAU100B)-WEB-2020-AFO
2021-01-19 21:34:31Trance413Zyrus_7_and_Pablo_Anon-Cosmic_Mystery_(Extended_Mix)-(BTRDR820)-SINGLE-WEB-2021-wAx
2021-01-19 20:55:41Trance414Sonic_Entity-Fabric_Of_The_Universe-(EXP106)-SINGLE-WEB-2021-wAx
2021-01-19 20:50:28Trance417Mindbenderz-Quantum_Field-(INM1DIGI560)-SINGLE-WEB-2021-wAx
2021-01-19 17:59:35Trance57Bclain_-_Manipulation-(RLS00138143)-SINGLE-WEB-2021-ZzZz
2021-01-19 17:54:07TranceVA-Nukleuz_Trance_Fetish_Vol._1-(1985WNUK)-WEB-2012-COS_INT
2021-01-19 17:52:54TranceP.H.A.T.T.-P.H.A.T.T.-(1648WNUK)-WEB-2011-COS_INT
2021-01-19 17:52:51TranceVA-P.H.A.T.T.-Remixes-(1649WNUK)-WEB-2011-COS_INT
2021-01-19 17:50:50TranceVA-Nukleuz_Trance_Sessions_Vol._6-(1617WNUK)-WEB-2011-COS_INT
2021-01-19 17:30:03Trance742DJ_Buk_-_Merch__Daylight_2__Miami_Beach_Parties-(YAVR253)-WEB-2021-ZzZz
2021-01-19 17:17:20Trance619Westpark_Robinsons_-_Not_Normal_(Original_Mix)-(VALS063)-WEB-2021-ZzZz
2021-01-19 17:02:12Trance619Louka_Ramirez_-_Home_Life_(Original_Mix)-(VALS064)-WEB-2021-ZzZz
2021-01-19 16:58:28Trance860Red_Scan_and_Slicetunes_-_Porn_Computer-(UTM021)-WEB-2021-ZzZz
2021-01-19 13:05:58Trance19140VA-This_is_DaWTone-(YR1413)-WEB-2021-AFO
2021-01-19 13:02:17Trance514Paul_elov8_Smith-Always_Us-(YV187)-SINGLE-WEB-2021-AFO
2021-01-19 07:29:20Trance624Rysto_and_Dustin_Husain_-_Flash_Focus-(FSOEC061)-WEB-2019-MMS
2021-01-19 07:29:06Trance621Kinetica_-_Just_Move-(FSOEC060A)-WEB-2019-MMS
2021-01-19 01:28:49TranceHumate-Love_Stimulation_And_Curious-CDM-1993-TGX
2021-01-18 23:16:13Trance631Iberian-And_the_Beginning_is_Over-(NHW046)-WEB-2020-AFO
2021-01-18 23:15:17Trance515Alex_Byrka_and_Van_Yorge-Pacific_Embrace-(SCR373)-WEB-2020-AFO
2021-01-18 23:15:13Trance516Chris_De_Seed_and_Ivan_Dulava-Come_Back_Home-(PHAT092)-WEB-2020-AFO
2021-01-18 23:15:11Trance618C-Systems_and_Christian_Zechner_and_Hanna_Finsen-Farewell-(DIGISOC380)-WEB-2020-AFO
2021-01-18 23:15:02Trance737Daniel_Rigoni-My_voice-(TMM131)-WEB-2020-AFO
2021-01-18 23:14:22Trance54748VA-Pure_Trance_50_Trance_Classics-(DISCPUTR01)-WEB-2020-AFO
2021-01-18 23:14:19Trance617Lepi_and_Taival-Sex_o_Phone-(SCR372)-WEB-2020-AFO
2021-01-18 23:14:11Trance637ZGOOT-Hold_Your_Dream-(SMLD078)-WEB-2020-AFO
2021-01-18 23:14:09Trance617Ericksii-Skinwalker-(UPLY129)-WEB-2020-AFO
2021-01-18 23:14:07Trance514Adam_Elliott-Suburbia-(DMAX653)-SINGLE-WEB-2020-AFO
2021-01-18 23:14:03Trance517Daved_and_Endless_Vibe-Respirator_(Project_Trance_2020_Official_Anthem)-(EDGE126)-WEB-2020-AFO
2021-01-18 23:13:58Trance629Iberian-Rebeca-(SDR387)-WEB-2020-AFO
2021-01-18 23:13:53Trance513Precious_Affliction-I_Promise-(SUBMISSION218)-SINGLE-WEB-2020-AFO
2021-01-18 23:13:32Trance850Marco_Mc_Neil-Unforgiven-(SDR390)-WEB-2020-AFO
2021-01-18 23:13:06Trance618BloodDropz-Wonder-(ESR468)-WEB-2020-AFO
2021-01-18 23:12:58Trance29314VA-Black_Hole_Trance_Music_10-20-(BHDC609)-WEB-2020-AFO
2021-01-18 23:12:19Trance618Michael_Angelo-Astronaute-(ABL011)-WEB-2020-AFO
2021-01-18 23:12:17Trance511Dmpv_and_Anveld-Twenty-Four_Hours-(BT280)-SINGLE-WEB-2020-AFO
2021-01-18 23:12:11Trance47Paul_Bujor-Ecstasy-(IHM121)-SINGLE-WEB-2020-AFO
2021-01-18 23:12:00Trance754Rainbow_Addict-Fading_Memories-(SOL141)-WEB-2020-AFO
2021-01-18 23:11:59Trance23226VA-Leisurely_Trance_Oct_2020-(YL098)-WEB-2020-AFO
2021-01-18 23:11:48Trance414Trance_Atlantic-Liberty_Island-(YL102)-SINGLE-WEB-2020-AFO
2021-01-18 23:11:40Trance525Ciro_Visone_and_Magdalen_Silvestra-I_Am_Free-(VRS108)-WEB-2020-AFO
2021-01-18 23:11:31Trance519Ruslan_Device_and_Katsu-White_Night-(ENTRM192)-WEB-2020-AFO
2021-01-18 23:11:27Trance519Escea-Beyond_The_Stars-(BTSR350)-WEB-2020-AFO
2021-01-18 23:11:26Trance411Henry_Caster-Summer_Stay-(IPR200)-SINGLE-WEB-2020-AFO
2021-01-18 23:11:23Trance415Mark_L2K_ft_Angel_Falls-Listen_(KaltFlut_Remix)-(ENTRME019)-SINGLE-WEB-2020-AFO
2021-01-18 23:11:20Trance416Imayl-Nightfall-(YL104)-SINGLE-WEB-2020-AFO
2021-01-18 23:11:13Trance741Sublitrance-Interaction-(TMM129)-WEB-2020-AFO
2021-01-18 23:11:09Trance835Miroslav_Vrlik-Night_and_Day-(FO140R074)-WEB-2020-AFO
2021-01-18 23:10:48Trance16149VA-Velocity_Trance_Oct_2020-(YV115)-WEB-2020-AFO
2021-01-18 23:10:05Trance518Edvard_Hunger-Energy_Soul-(WATR060)-WEB-2020-AFO
2021-01-18 23:09:53Trance734Han_Beukers-Aglaea-(ENTRMR101)-WEB-2020-AFO
2021-01-18 23:09:47Trance519Mercurial_Virus-Tree_of_Life-(UPLFT062)-WEB-2020-AFO
2021-01-18 23:09:41Trance516Vector-Lena-(UPLY128)-WEB-2020-AFO
2021-01-18 23:09:39Trance520Ciro_Visone_and_Semper_T.-Strikeforce-(RDX138165)-WEB-2020-AFO
2021-01-18 23:09:25Trance518Mark_Aigon-Applou-(ECT182)-WEB-2020-AFO
2021-01-18 23:09:16Trance516Leonard_A-Aura-(ENPROG411N)-WEB-2020-AFO
2021-01-18 23:09:15Trance619Zebar-Electric_Chair-(FSOEC115A)-WEB-2020-AFO
2021-01-18 23:08:59Trance514Nakhiya-Fascination-(PVM121)-SINGLE-WEB-2020-AFO
2021-01-18 23:08:47Trance516Vadim_Bonkrashkov_and_Amin_Salmee-Last_Kiss-(RA125)-WEB-2020-AFO
2021-01-18 23:08:40Trance528Basil_OGlue-Kodex-(FOR078)-WEB-2020-AFO
2021-01-18 23:08:26Trance1153DJ_Xquizit_and_OSITO-Set_Yourself_Free-(ARD075)-WEB-2020-AFO
2021-01-18 23:08:01Trance521James_Dymond_and_Susana-Is_It_Too_Late-(AMSTR355)-WEB-2020-AFO
2021-01-18 23:07:52Trance518Last_Soldier-Real_Self-(ALWAYSA353)-WEB-2020-AFO
2021-01-18 23:07:48Trance521Moelamonde-Dreamer-(DMAXD340)-WEB-2020-AFO
2021-01-18 23:07:46Trance513Grizli_Man-Cosmic_Dreamer-(DMAX651)-SINGLE-WEB-2020-AFO
2021-01-18 23:07:44Trance513Dan-Andrei_Zinca-Feel-(PVM119)-SINGLE-WEB-2020-AFO
2021-01-18 23:07:43Trance622Maduin_and_Joorg_Matt-Alana-(ECT181)-WEB-2020-AFO
2021-01-18 23:07:26Trance519Thomas_Santosa-Oasis-(ESR504)-WEB-2020-AFO
2021-01-18 23:07:22Trance613Avenia_and_Sodality-Frost-(SCR030)-WEB-2020-AFO
2021-01-18 23:07:20Trance519Sali-Launch-(BTSR352)-WEB-2020-AFO
2021-01-18 23:06:36Trance37377VA-Myon_Presents_20_Years_Of_Anjunabeats-(ANJCDCO219D)-WEB-2020-AFO
2021-01-18 23:06:34Trance521Jarvith_Bhaut_Perz-No_Way_Out-(TMM130)-WEB-2020-AFO
2021-01-18 23:06:29Trance518Patrick_Mayers_and_Jackob_Roenald-Safe_Heaven-(DEF228)-WEB-2020-AFO
2021-01-18 23:06:25Trance622Cj_S.a.y.-Core_Of_Life-(SUBMISSION219)-WEB-2020-AFO
2021-01-18 23:06:24Trance511Henry_Caster-Give_me_you_Light-(MSBKPR0074)-SINGLE-WEB-2020-AFO
2021-01-18 23:06:22Trance619Miroslav_Vrlik-Let_It_Be-(MCV102)-WEB-2020-AFO
2021-01-18 23:06:12Trance521EnerLift-Ascension-(BTSR356)-WEB-2020-AFO
2021-01-18 23:05:51Trance14115VA-SUBMISSION_UNIVERSAL_2020_(UPLIFTING_SAMPLER)-(SUBMISSION223)-WEB-2020-AFO
2021-01-18 23:05:42Trance513SDL-Konstantin-(YL101)-WEB-2020-AFO
2021-01-18 23:05:24Trance635Ariscan-Orcas-(LOST164)-WEB-2020-AFO
2021-01-18 23:05:17Trance520Alessandra_Roncone-What_Makes_You_Feel_Alive-(FSOE482A)-WEB-2020-AFO
2021-01-18 23:05:09Trance412Dan_Schneider_pres._Cimmerian-Acid_Rain-(BMV012)-SINGLE-WEB-2020-AFO
2021-01-18 23:05:01Trance518Alex_Leavon_pres_Wesand-Desert_Sky-(PRSPCTV014)-WEB-2020-AFO
2021-01-18 23:04:57Trance515Nico_Cranxx-Back_Home-(SDR386)-SINGLE-WEB-2020-AFO
2021-01-18 23:04:54Trance63240THAVHA-Live-(SDR389)-WEB-2020-AFO
2021-01-18 23:04:46Trance521Xenger_One-Cinematic-(RDXM124)-WEB-2020-AFO
2021-01-18 23:04:35Trance518Ed_Lynam-Oxytocin-(HQ027)-WEB-2020-AFO
2021-01-18 23:04:31Trance954Boris_Foong-Knightfall_EP-(RA126)-WEB-2020-AFO
2021-01-18 23:04:29Trance845Puresoul-Our_Shelter-(TMM133)-WEB-2020-AFO
2021-01-18 23:04:16Trance1065Costa_Pantazis-Salience-(MA024)-WEB-2020-AFO
2021-01-18 23:04:16Trance519Bryn_Liedl-Rites-(EUPH329)-WEB-2020-AFO
2021-01-18 23:04:13Trance522LOFTIER-In_the_Sky-(ESK102)-WEB-2020-AFO
2021-01-18 23:04:10Trance519Terra_V-Ex_Somno-(RDX410)-WEB-2020-AFO
2021-01-18 23:04:06Trance516Encount3r-Jackal-(SCR376)-WEB-2020-AFO
2021-01-18 23:04:06Trance518Peter_Santos-Awakening-(NIX181)-WEB-2020-AFO
2021-01-18 23:04:04Trance514Bloodfury-Lost_Legacy-(DMAXDR074)-SINGLE-WEB-2020-AFO
2021-01-18 23:04:01Trance514LTN_and_Somna-Heatwave-(ITP126)-WEB-2020-AFO
2021-01-18 23:03:58Trance632Mark_Digital-Divergent_EP-(ASR264)-WEB-2020-AFO
2021-01-18 23:03:58Trance618Tonerush-Dancer_Of_The_Boreal_Valley-(RDX408)-WEB-2020-AFO
2021-01-18 23:03:53Trance620Frainbreeze_ft_CC-Lost_and_Found-(RNMR200)-WEB-2020-AFO
2021-01-18 23:03:52Trance736Santiago_Ibanez-Como_es_posible-(TMM132)-WEB-2020-AFO
2021-01-18 21:27:13Trance512Enharmor_-_Moonflower_(Extended_Mix)-(AS1380137)-SINGLE-WEB-2021-L4M
2021-01-18 21:22:20Trance522Nitrous_Oxide-One_Love-(ESS084)-WEB-2020-AFO
2021-01-18 21:22:03Trance414Ajie_Benno-Passion-(SDR391)-SINGLE-WEB-2020-AFO
2021-01-18 21:21:15Trance617Cedric_Lass-Geostorm-(RDXRED170)-WEB-2020-AFO
2021-01-18 21:21:02Trance732Aditya_K_Balu_and_Henry_Moe_and_Bianca_Molini-Perfections_Of_Her_(Remixed)-(SDR393)-WEB-2020-AFO
2021-01-18 21:20:23Trance410M.A.T.I.-Way_of_Champions-(DMAX652)-SINGLE-WEB-2020-AFO
2021-01-18 21:20:21Trance516ZQRM_and_Kai_Krause-Same_Issue-(SUBMISSION224)-WEB-2020-AFO
2021-01-18 21:20:10Trance520Ciro_Parcheri_and_Hidden_Tigress-Heaven-(NHWD006)-WEB-2020-AFO
2021-01-18 21:20:08Trance522Apsola-Orange_Lake-(ABL012)-WEB-2020-AFO
2021-01-18 21:20:02Trance521Ocoro-Meari-(TR135)-WEB-2020-AFO
2021-01-18 21:19:41Trance623Alex_Believe-Rocket_(Remixes)-(YR1369)-WEB-2020-AFO
2021-01-18 21:19:32Trance521Nord_Horizon-Take_My_Hand-(INFRAPU073)-WEB-2020-AFO
2021-01-18 21:19:19Trance519LekSin-Eternity-(BTSR357)-WEB-2020-AFO
2021-01-18 21:19:14Trance755VA-Remixes_Collection_EP_3-(SMLD079)-WEB-2020-AFO
2021-01-18 21:19:06Trance641Tommy_Kierland_and_Laucco-Nidavellir_(The_Remixes)-(BTSR351)-WEB-2020-AFO
2021-01-18 21:19:02Trance13134VA-FG_Top_10_October_2020-(FC073A)-WEB-2020-AFO
2021-01-18 21:18:59Trance521Above_and_Beyond-Crash-(ANJ663D)-WEB-2020-AFO
2021-01-18 21:18:47Trance521Stoneface_and_Terminal-Consoon-(FSOE485A)-WEB-2020-AFO
2021-01-18 21:18:41Trance624Joss_Langdon-Revival-(RDX138166)-WEB-2020-AFO
2021-01-18 21:18:34Trance413tranzLift_and_Joe_Cormack-Beautiful_Day-(BTSR354)-SINGLE-WEB-2020-AFO
2021-01-18 21:18:21Trance48Spherical_Bloom-Zion_2020-(AZR132)-SINGLE-WEB-2020-AFO
2021-01-18 21:18:09Trance519Alan_Sharkey-Flujo_Libre-(DISDAR237)-WEB-2020-AFO
2021-01-18 21:17:54Trance619NyTiGen_and_Ruslan_Borisov-Sunrise-(ABRD235)-WEB-2020-AFO
2021-01-18 21:17:48Trance523Samuel_Sonder-Do_You_Realize-(UPLY130)-WEB-2020-AFO
2021-01-18 21:17:43Trance412Loki-Infinity-(DISCOVER273)-SINGLE-WEB-2020-AFO
2021-01-18 21:17:37Trance520Adrian_Alexander_and_Thomas_Mengel-Timewalker-(ENPROG412)-WEB-2020-AFO
2021-01-18 21:17:31Trance417Vinny_DeGeorge-Existence-(TAR138134)-SINGLE-WEB-2020-AFO
2021-01-18 21:17:24Trance517EMEREX-Icarus-(SCR377)-WEB-2020-AFO
2021-01-18 21:17:11Trance517Billy_Gillies-Closed_Eyes-(FSOE483A)-WEB-2020-AFO
2021-01-18 21:17:05Trance48Kyle_Wong-Pyrite-(PVM122)-SINGLE-WEB-2020-AFO
2021-01-18 21:16:59Trance514Quantor-Shade-(HCR375D)-WEB-2020-AFO
2021-01-18 21:14:56Trance633Tony_Grand_and_YURI_PIKE-Sunset-(ASR266)-WEB-2020-AFO
2021-01-18 21:14:48Trance520Peter_Santos-End_Is_The_Beginning-(FSOE484A)-WEB-2020-AFO
2021-01-18 21:14:33Trance963Craig_Connelly-Run_Away__California_(Remixes)-(BH10520)-WEB-2020-AFO
2021-01-18 21:12:34Trance517Joe_Meils-Mendora-(AZR131)-WEB-2020-AFO
2021-01-18 21:12:25Trance841Nth_Factor-By_the_Sword-(PLRP0013)-WEB-2020-AFO
2021-01-18 21:12:21Trance521Amend_Infinity-Found-(NIX180)-WEB-2020-AFO
2021-01-18 21:12:17Trance519Exolight-One_Last_Time-(ALWAYSA355)-WEB-2020-AFO
2021-01-18 21:09:51Trance514DARVO-Breathe-(PHAT091)-WEB-2020-AFO
2021-01-18 21:09:49Trance411WSS-Bright_Side_Of_The_Moon-(TAR138136)-SINGLE-WEB-2020-AFO
2021-01-18 21:09:47Trance1061Rhythm_Of_Life_vs_Enigma_State-You_Put_Me_in_Heaven_With_Your_Touch_2020-(PLRP0014)-WEB-2020-AFO
2021-01-18 21:09:45Trance518DAvIDI-Skylight-(SCR374)-WEB-2020-AFO
2021-01-18 21:09:38Trance1090Angel_Ace-Hasta_Siempre-(PLUC0005)-WEB-2020-AFO
2021-01-18 21:09:36Trance620Alex_van_ReeVe_vs_Amos_and_Riot_Night-Alpha_Omega-(ALWAYSA354)-WEB-2020-AFO
2021-01-18 21:09:32Trance613Alexander_Popov_and_M11_ft_Will_Church-Hold_Back_(Club_Mix)-(ITP127)-WEB-2020-AFO
2021-01-18 21:07:57Trance834Leo_Lauretti_and_Taygeto_ft_Giovanna_Bianchi-Find_My_Own_(The_Remixes)-(ESR506)-WEB-2020-AFO
2021-01-18 21:07:54Trance520Lasse_Macbeth_and_Daniel_Kandi-Gorgeous-(ITWT7610)-WEB-2020-AFO
2021-01-18 21:07:51Trance734Karanda_and_Sarah_Russell-Still_Got_Time_(Remixes)-(AMSTR353)-WEB-2020-AFO
2021-01-18 21:07:49Trance618D72-A_New_Day-(ITP128A)-WEB-2020-AFO
2021-01-18 21:07:44Trance833Daniel_Wanrooy-Bermuda-(ELPIDAMUSIC005)-WEB-2020-AFO
2021-01-18 21:07:43Trance851Simon_Fischer_pres_Tales_Of_Elevation-Universal_Silence-(SCE031)-WEB-2020-AFO
2021-01-18 21:07:40Trance835Tasadi_x_Austin_Leeds-Saros-(STAR006)-WEB-2020-AFO
2021-01-18 21:07:38Trance731Fusion_Bass_ft_Evgenia_Indigo-The_Future_Is_Here-(EER704)-WEB-2020-AFO
2021-01-18 21:07:07Trance512Synthetic_Fantasy-Carnival-(GERT0541)-SINGLE-WEB-2020-AFO
2021-01-18 21:06:29Trance841Ancient_Umbra-Ouroboros-(PLMR003)-WEB-2020-AFO
2021-01-18 21:06:26Trance514Niko_Hoffren_and_Maya-Mystery_(Chris_Oblivion_Remix)-(YL109)-SINGLE-WEB-2020-AFO
2021-01-18 21:06:21Trance511James_Kitcher_and_Adam_Taylor-Falling_Flame-(TA046)-SINGLE-WEB-2020-AFO
2021-01-18 21:06:19Trance620Jackob_Rocksonn-Purple_Sky-(INFRAR035)-WEB-2020-AFO
2021-01-18 21:06:17Trance8262Sher-Hit_The_Flow__Metropolis-(RA127)-WEB-2020-AFO
2021-01-18 21:06:15Trance617Shedona_and_Anna_Lee-Drakkar-(GRTSQ144)-WEB-2020-AFO
2021-01-18 21:06:13Trance512I.M.XPLODE-Insert_Profanity_Here-(LSR030)-SINGLE-WEB-2020-AFO
2021-01-18 21:06:12Trance614FAWZY_and_J.O.S.E.-Abmessungen-(NRG045)-WEB-2020-AFO
2021-01-18 21:05:08Trance619Micro_Out-Autumn-(GERT0542)-WEB-2020-AFO
2021-01-18 21:04:51Trance513S.U.L.L.Y-Impulse-(BMD032)-SINGLE-WEB-2020-AFO
2021-01-18 21:02:39Trance740Cresta_-_Sensation-(JMJR094)-WEB-2021-L4M_INT
2021-01-18 21:01:10Trance732Phazer_and_Triakis-Summer_Skies-(SUBMISSION225)-WEB-2020-AFO
2021-01-18 21:00:14Trance624PDZ-House_Music_Pupa_Nany-(ESR470)-WEB-2020-AFO
2021-01-18 20:58:38Trance628Calvin_OCommor_-_Deep_Caves-(BTSR381)-WEB-2021-L4M_INT
2021-01-18 20:57:07Trance745Nakhiya-Feeling_HIgh__Felidae__Ionosphere-(AURALSN182)-WEB-2020-AFO
2021-01-18 20:57:05Trance621Yelow_and_George_Jema-Prehistoric-(ELEVATE037)-WEB-2020-AFO
2021-01-18 20:56:54Trance617Henry_Moe-Ethereal-(BTSR358)-WEB-2020-AFO
2021-01-18 20:56:50Trance619Kross_and_Fader-Vittory_Day-(TAR138137)-WEB-2020-AFO
2021-01-18 20:56:50Trance626Dark_Matter-Its_Not_What_You_Think-(FOR079)-WEB-2020-AFO
2021-01-18 20:56:49Trance734Restonia-Moonlit_Sky-(SDR396)-WEB-2020-AFO
2021-01-18 20:56:47Trance622Dave_Steward-Steamtank_(Phil_Reynolds_Remix)-(NC0133)-WEB-2020-AFO
2021-01-18 20:56:46Trance621Ex-Driver_and_Sound-X-Monster-Revelation-(EGMSIN300)-WEB-2020-AFO
2021-01-18 20:56:42Trance525Gary_Leroy-Unexpected-(ABL013)-WEB-2020-AFO
2021-01-18 20:56:30Trance20200Max_Meyer-No_Exit-(INTRICATE386)-WEB-2020-AFO
2021-01-18 20:56:28Trance616Jack_Vath_and_3lanko-We_Went_Beyond-(VAU101)-WEB-2020-AFO
2021-01-18 20:56:27Trance618Sergey_Shabanov-Endless_Summer-(ELEVATE034)-WEB-2020-AFO
2021-01-18 20:56:24Trance617Ramsey_Westwood-Breakout-(BT281)-WEB-2020-AFO
2021-01-18 20:56:21Trance622Andrew_Davies-Elevate-(BSR008)-WEB-2020-AFO
2021-01-18 20:56:20Trance838Made_Of_Light-Yellow_morning__Reminiscence-(WATR062)-WEB-2020-AFO
2021-01-18 20:56:07Trance841Andrew_Frenir-Nobody_Like_You_(Remixes)-(SMLD082)-WEB-2020-AFO
2021-01-18 20:56:07Trance623Future_State-Hexagon-(NRG044)-WEB-2020-AFO
2021-01-18 20:55:57Trance959KBK_and_Grande_Piano_ft_Agata_Pasternak-Mystery_Of_Tomorrow_(Remixed)-(SDR395)-WEB-2020-AFO
2021-01-18 20:55:57Trance623Solewaas-We-(TAROAS043)-WEB-2020-AFO
2021-01-18 20:55:55Trance625Adam_Sein-Remember__Winter_Tales_(Remixed)-(SMLD081)-WEB-2020-AFO
2021-01-18 20:55:54Trance622Harry_Square-Maverick_EP-(ASR265)-WEB-2020-AFO
2021-01-18 20:55:52Trance619Decibel_Pilot-Lift-(ELEVATE036)-WEB-2020-AFO
2021-01-18 20:55:50Trance627Alternate_High_and_Laucco-Hearts_Of_Heaven_(The_Remixes)-(BTSR355)-WEB-2020-AFO
2021-01-18 20:55:44Trance837Kenny_Palmer-Azshara_EP-(INFRAR036)-WEB-2020-AFO
2021-01-18 20:55:42Trance511Jameson_Tullar-Take_Me_Away-(YR1376)-SINGLE-WEB-2020-AFO
2021-01-18 20:55:35Trance620Binary_Ensemble-Yaadein-(ELEVATE035)-WEB-2020-AFO
2021-01-18 20:55:35Trance619Blue_Serigala-Ampera-(NIX183)-WEB-2020-AFO
2021-01-18 20:55:26Trance638F1end-Minds_Eye__Music_Is_Energy-(DISDAR238)-WEB-2020-AFO
2021-01-18 20:55:16Trance511Thomas_Patrick-Samurai-(BMV013)-SINGLE-WEB-2020-AFO
2021-01-18 20:42:17Trance622Vadim_Bonkrashkov_and_Andrew_Mirt_-_Human_Race-(TRUE152A)-WEB-2021-L4M_INT
2021-01-18 20:34:42Trance620Arctic_Ocean_and_Henry_Moe_-_Infinity-(NIX192)-WEB-2021-L4M_INT
2021-01-18 19:46:38Trance516Miles_I.D_-_Farewell_(Original_Mix)-(TAR138149)-SINGLE-WEB-2021-L4M_INT
2021-01-18 18:55:22Trance624Epidemika_ft._LNYX_-_Without_U_(Maratone_Remix)-(INFRA206)-WEB-2021-L4M_INT
2021-01-18 18:53:28Trance48Tommytechno-Semper_Trance-SINGLE-WEB-2021-wAx
2021-01-18 18:29:27Trance57Allixandflow_-_Madagaskar-(RLS00137539)-SINGLE-WEB-2021-ZzZz
2021-01-18 18:07:05Trance625Xerek_-_Distant_Reality-(AEP423)-WEB-2021-L4M_INT
2021-01-18 18:06:43Trance627Ryan_K_and_Will_Room_-_Veneration-(AE427)-WEB-2021-L4M_INT
2021-01-18 16:36:19Trance514Windefalk_-_Lucid_Illusion-(TZR014)-SINGLE-WEB-2021-ZzZz
2021-01-18 16:11:23Trance746Novan-Melina_2_0_(Remixes)-(RUPALY025)-WEB-2021-wAx
2021-01-18 15:54:45Trance513Nightcore_-_Tune_In_Now_(Van_Snyder_Remix)-(4061707528330)-SINGLE-WEB-2021-ZzZz
2021-01-18 14:49:25Trance415Amar_N-My_World-SINGLE-WEB-2021-wAx
2021-01-18 14:46:49Trance410Alien_DJ-Electron-(AR097)-SINGLE-WEB-2021-wAx
2021-01-18 13:56:16Trance517Amarano_Jennings-Just_Happiness-(VALS062)-WEB-2021-wAx
2021-01-18 13:53:55Trance520Steph_Goodwillis-Surely_Something-(VALS061)-WEB-2021-wAx
2021-01-18 13:52:01Trance417Kellerraum_Projekt-Good_Days_Will_Come-SINGLE-WEB-2021-wAx
2021-01-18 13:04:34Trance64596VA-A_Decade_of_Female_Vocal_Trance_(2010_-_2020)-(RNM269)-WEB-2020-AFO
2021-01-18 13:01:15Trance23232VA-Yeiskomp_Top_Trance_Oct_2020-(YR1355)-WEB-2020-AFO
2021-01-18 13:01:15Trance43404VA-Super8_and_Tab_Presents_20_Years_Of_Anjunabeats-(ANJCDCO225D)-WEB-2020-AFO
2021-01-18 13:01:15Trance624NX-Trance-No_Release-(DEF229)-WEB-2020-AFO
2021-01-18 12:24:35Trance513Betahouse_Mafia_-_Get_Down-(RR049)-SINGLE-WEB-2021-ZzZz
2021-01-18 12:21:30Trance861Oleg_Kozlov-Space_In_Your_Eyes-(YAWR270)-WEB-2021-wAx
2021-01-18 12:18:57Trance522Trance_Reserve-Another_Reality-(NS947)-WEB-2021-wAx
2021-01-18 12:16:32Trance417Insomnium-This_Feeling-(RU261812)-SINGLE-WEB-2021-wAx
2021-01-18 12:14:16Trance413Iblis-Shoulder_Tap-SINGLE-WEB-2021-wAx
2021-01-18 12:11:31Trance417BadEQ-Speeder-(GYS1528)-SINGLE-WEB-2021-wAx
2021-01-18 12:09:13Trance415Area_51-Rabbit_Hole-(N4A076)-SINGLE-WEB-2021-wAx
2021-01-18 12:01:34Trance522Allan_McGrey-Distant_Reality-(UPLY141)-WEB-2021-wAx
2021-01-18 11:30:38Trance413SinStar-Galaxy-(GRVV1150)-SINGLE-WEB-2021-wAx
2021-01-18 11:27:46Trance417Jav_Teran_ft_Budda_Khan-Power-SINGLE-WEB-2021-wAx
2021-01-18 11:25:21Trance416Alexander_Komarov_and_Alex_Zhukoff-Home-(NSM413)-SINGLE-WEB-2021-wAx
2021-01-17 22:26:10Trance423Ben_Jacob-Hope-(RU261722)-SINGLE-WEB-2021-wAx
2021-01-17 21:23:00TrancePaul_van_Dyk_-_VONYC_Sessions_741-SAT-01-17-2021-TALiON
2021-01-17 20:16:26Trance414Switch_and_RagNaroK-Tales_Of_The_End-(PWR95)-SINGLE-WEB-2021-wAx
2021-01-17 20:08:19Trance49Picso-The_Last_Judgement-(EBR096)-SINGLE-WEB-2021-wAx
2021-01-17 20:02:46Trance16114Rega_vs_Armand_Van_Henegouwen_-_Legacy_Part_Two_(The_Tracks)-(4061707495649)-WEB-2020-ZzZz
2021-01-17 20:02:37TranceRega_vs_Armand_Van_Henegouwen_-_Legacy_Part_One_(The_Remixes)-(10152229)-WEB-2019-ZzZz
2021-01-17 20:01:14Trance411Red_Pulse_and_Michele_Adamson-Up_The_Whole_Way-(ARC521)-SINGLE-WEB-2021-wAx
2021-01-17 19:13:45Trance619NyTiGen_and_Ruslan_Borisov-Sky-(SNM079)-WEB-2021-AFO
2021-01-17 19:10:21Trance512Jody_6-Passage_To_Euphoria-(KR007)-SINGLE-WEB-2021-AFO
2021-01-17 16:00:52Trance620Martin_Libsen-Epsilon_Eridani-(BTSR377)-WEB-2021-AFO
2021-01-17 15:09:51Trance513AMNOR-The_Park-(SUBMISSION237)-SINGLE-WEB-2021-AFO
2021-01-17 15:07:37Trance624Synthetic_Fantasy-Evening_Star-(GERT0554)-WEB-2021-AFO
2021-01-17 15:07:10Trance16157VA-The_Ultimate_Trance_Collection_Vol_11-(10185643)-WEB-2021-AFO
2021-01-17 15:03:07Trance512aXtm_and_Maskin_Mind-Azure_Skies-(YR1412)-SINGLE-WEB-2021-AFO
2021-01-17 14:07:43Trance617Ben_van_Gosh-Feel_Free-(AS1380128)-WEB-2021-AFO
2021-01-17 14:00:18Trance26248VA-Yeiskomp_Leisurely_Trance_Jan_2020-(YL140)-WEB-2021-AFO
2021-01-17 13:35:08Trance620Iant-Euphoria-(YV186)-WEB-2021-AFO
2021-01-17 13:32:20Trance517Skynet_and_Fekky-We_Are_More-(SR017)-SINGLE-WEB-2021-AFO
2021-01-17 13:31:47Trance620Glacial_Storm-Dreamcatcher-(MCV106)-WEB-2021-AFO
2021-01-17 13:16:05Trance618Martnello-Time_Will_Tell-(ECT192)-WEB-2021-AFO
2021-01-17 13:13:27Trance630Ciree-Beautiful_Moments-(SOL152)-WEB-2021-AFO
2021-01-17 13:11:55Psychedelic621Blind_Dreamer_and_iThur-Yibambe-(RDXF053)-WEB-2021-AFO
2021-01-17 13:09:34Trance619Temple_One_pres_Cosmic_Mystery-Around_The_World-(BLS363)-WEB-2021-AFO
2021-01-17 13:08:50Trance624Sanani-Vesta-(NHW056)-WEB-2021-AFO
2021-01-17 13:08:13Trance620Digital_Energy-Starlight-(RDXS034)-WEB-2021-AFO
2021-01-17 13:07:40Trance728Sandro_Mireno-In_Our_Memory-(ABSK082)-WEB-2021-AFO
2021-01-17 13:06:06Trance618Quantor-Interstellar-(HCR379D)-WEB-2021-AFO
2021-01-17 13:05:36Trance623Adam_Ellis_and_Michele_C-Dont_Disappear-(ITWT7670)-WEB-2021-AFO
2021-01-17 13:03:58Trance619Soarsonic-Astrophysics-(RDXM137)-WEB-2021-AFO
2021-01-17 13:02:46Trance512Nikolauss-A_Thousand_Words-(RGEN064)-SINGLE-WEB-2021-AFO
2021-01-17 13:02:02Trance619Symmetrik-The_Curse-(NKF041)-WEB-2021-AFO
2021-01-17 10:56:31Trance628Amos_and_Riot_Night_vs._Destia_and_Sue_McLaren_-_The_Answer-(DIT016)-WEB-2021-L4M_INT
2021-01-17 08:54:00TranceRuben_de_Ronde_-_Live_at_We_Own_The_Night-CABLE-01-16-2021-TALiON
2021-01-17 01:36:56Trance511Roi_Eliot_-_Fate-(YAVR244)-SINGLE-WEB-2021-ZzZz
2021-01-17 01:13:45Trance413Symphonix_and_Eddie_Bitar-Looking_For-(BTRDR819)-SINGLE-WEB-2021-wAx
2021-01-17 01:08:49Trance45Rahman_Hajati-Hypnotic_Mammoth-SINGLE-WEB-2021-wAx
2021-01-17 01:06:32Trance47Brick_Silence-Euphoria-SINGLE-WEB-2021-wAx
2021-01-16 19:44:24Trance511Briggetta_Pompalassi_-_Ontem-(5059713068055)-SINGLE-WEB-2021-ZzZz
2021-01-16 19:40:46Trance517Damir_TC_-_The_Girls_Voice-(YAVR246)-SINGLE-WEB-2021-ZzZz
2021-01-16 18:47:05Trance511Santiaga_Draptimonotti_-_Mandato-(5059713068406)-SINGLE-WEB-2021-ZzZz
2021-01-16 18:36:36Trance16191Rafael_Osmo-Allure-(PRLICD002)-WEB-2021-AFO
2021-01-16 18:10:22Trance620New_Disorder_-_Deception_2_(Sole_Infinito_Remix)-(SIS060)-WEB-2021-JUSTiFY
2021-01-16 18:09:37Trance513David_Mcrae_and_NuroGL_-_Afterthought-(NFR006)-SINGLE-WEB-2021-JUSTiFY
2021-01-16 17:43:14Trance46Tyron_Hapi-Euphoria-(CW0074)-SINGLE-WEB-2021-wAx
2021-01-16 17:40:54Trance421Sharigrama-Midnight_Alien-(PWR93)-SINGLE-WEB-2021-wAx
2021-01-16 14:34:47Trance510Illaro-Novella-(YL139)-SINGLE-WEB-2021-AFO
2021-01-16 14:06:06Trance412Ben_Projekt-Lost_In_Time-(YV185)-SINGLE-WEB-2021-wAx
2021-01-16 14:03:46Trance411Marco_Bertek-Fly_To_The_Moon-(YAVR243)-SINGLE-WEB-2021-wAx
2021-01-16 07:29:18Trance15171VA_-_Beatport_PROJEKT_BEATS_EPISODE_023-WEB-2020
2021-01-16 04:22:29Psychedelic1685Aureal_Number--Senales-(OVNILP940)-WEB-2021-x0x0s
2021-01-16 01:46:33Trance515Bloodfury_-_Enceladus-(OZR049)-SINGLE-WEB-2021-ZzZz
2021-01-16 01:30:53Trance726Beat_Service_ft._Jess_Morgan_-_When_You_Wont_Come_Home-(BSA029A)-WEB-2021-JUSTiFY
2021-01-16 01:28:10Trance513Dj_Darroo_-_90s_Spirit-(IT062)-SINGLE-WEB-2021-ZzZz
2021-01-16 00:54:29Trance514Lianari_Dawtone_-_Unforgattable-(YR1411)-SINGLE-WEB-2021-ZzZz
2021-01-16 00:50:45Trance620George_Tsampas_ft._Remeya_Kingston_-_Life_One-(UPLY140)-WEB-2021-JUSTiFY
2021-01-16 00:50:45Trance619Diarent_-_Obsession-(TF056)-WEB-2021-JUSTiFY
2021-01-16 00:49:47Trance623Alexander_Pilyasov_-_Fly_Like_A_Bird-(YAWR269)-WEB-2021-JUSTiFY
2021-01-16 00:13:40TranceDennis_Sheperd-Find_The_Sunrise-(BHCD214)-DIRFIX-CD-2021-OTTS
2021-01-16 00:07:57Trance1998Dennis_Sheperd-Find_The_Sunrise-(BHCD214)-CD-2020-OTTS
2021-01-15 23:52:34Trance29262VA-Nothing_But..._Trance_Masters_Vol._15-(NBNTM15)-WEB-2021-JUSTiFY
2021-01-15 23:34:05Trance30254Ellie_Lawson-Becoming-(RNM275A)-WEB-2021-AFO
2021-01-15 23:05:40TranceAbove_and_Beyond_-_Group_Therapy_416__Incl_Solarstone_Guestmix-SAT-01-15-2021-TALiON
2021-01-15 21:26:42Trance516Shadowline_-_Facelift_(Original_Mix)-(AS1380122)-SINGLE-WEB-2021-L4M_INT
2021-01-15 21:22:28Trance617Make_One_-_Spaceship-(RA138)-WEB-2021-L4M_INT
2021-01-15 21:19:21Trance625Bigtopo_and_Zeus_-_Nirodha-(SND247A)-WEB-2021-L4M_INT
2021-01-15 21:16:27Trance48MarcX-Wreak_Havoc_(Explicit)-SINGLE-WEB-2021-wAx
2021-01-15 21:14:12Trance646Mysmatic-Curious_Meeting-WEB-2021-wAx
2021-01-15 21:11:33Trance623ThoBa_and_Kate_Miles_-_Your_Love_(NoMosk_Remix)-(VOICE099A)-WEB-2021-L4M_INT
2021-01-15 21:06:14Trance624Andrew_Rayel_and_Tensteps_ft._RUNAGROUND_-_Carry_You_Home-(IHM128)-WEB-2021-L4M_INT
2021-01-15 21:02:17Trance624BiXX_-_Unchartered_Waters-(MPURE120)-WEB-2021-L4M_INT
2021-01-15 21:00:07Psychedelic23289VA_-_Mysteries_Of_Psytrance_Vol._8-WEB-2020-gEm
2021-01-15 20:42:38Trance739Gouryella_-_Gouryella_(Matt_Fax_Remix)-(FLASHBACK016R2)-WEB-2021-L4M_INT
2021-01-15 20:37:20Trance622Protoculture_-_Lost_In_Isolation-(ASOT631)-WEB-2021-L4M_INT
2021-01-15 20:37:10Trance626Luke_Bond_ft._Nathan_Nicholson_-_Stars-(ARMD1573)-WEB-2021-L4M_INT
2021-01-15 20:36:53Trance620Ashley_Wallbridge_ft._Sarah_De_Warren_-_World_For_You-(WBOK002B)-WEB-2021-L4M_INT
2021-01-15 20:36:36Trance624Ronski_Speed_-_Greyskull-(SUBC226)-WEB-2021-L4M_INT
2021-01-15 15:55:09TranceVA-Nukleuz_Green_Vol._3-(1776WNUK)-WEB-2004-COS_INT
2021-01-15 15:54:33TranceVA-Nukleuz_Green_Vol._2-(1773WNUK)-WEB-2004-COS_INT
2021-01-15 15:53:41TranceVA-Nukleuz_Green_Vol._1-(1772WNUK)-WEB-2004-COS_INT
2021-01-15 14:41:54Trance520Sonar_Systems_-_Sonar_Systems_2021_(Beam_and_Mystic_Experience_Remix)-WEB-2021-MARiBOR
2021-01-15 14:41:53Trance47Ashley_Wallbridge_feat._Sarah_De_Warren_-_World_For_You-SINGLE-WEB-2021-MARiBOR
2021-01-15 14:27:30Trance401138VA-Trance_Sessions_Vol_1-2CD-FLACON
2021-01-15 11:53:48Trance661130VA-Trance_Megamix_2021-2CD-FLACON
2021-01-15 11:14:20Trance651Kelle-Destiny-(FIGURA190)-WEB-2021-wAx
2021-01-15 10:36:22Trance6271VA-Trance_Megamix_2021-2CD-2020-BF
2021-01-15 07:20:33Trance32447VA_-_Beatport_Mix-Tape_072_of_Jean_Lostebien-WEB-2021
2021-01-15 01:29:52Psychedelic15216VA-Zenon_Records_Selections_2020_Vol_2-(ZENCD212)-WEB-2021-x0x0s
2021-01-15 01:22:38Trance619Ruddaz-8YNTHW4VE-(MAGIC194)-WEB-2021-AFO
2021-01-15 00:02:03TranceMarkus_Schulz_-_Global_DJ_Broadcast-SAT-01-14-2021-TALiON
2021-01-14 23:33:34Trance6953VA-Northern_Exposure_2_Sasha_and_Digweed-(NECD2)-2CD-FLAC-1997-WRE
2021-01-14 23:30:28Trance39879VA-French_Trance_Vol._01-(060249807348)-FR-2CD-FLAC-2003-WRE
2021-01-14 23:01:06TranceArmin_van_Buuren_-_A_State_of_Trance_999-SAT-01-14-2021-TALiON
2021-01-14 21:28:11Trance46DJ_Tomsten-Yes_Techno_Sir-SINGLE-WEB-2021-wAx
2021-01-14 21:25:50Trance46DJ_Tomsten-Wet_Dipper-SINGLE-WEB-2021-wAx
2021-01-14 21:23:34Trance47DJ_Tomsten-The_Windwear-SINGLE-WEB-2021-wAx
2021-01-14 21:21:16Trance47DJ_Tomsten-The_Last_On_Earth-SINGLE-WEB-2021-wAx
2021-01-14 21:18:54Trance47DJ_Tomsten-It_Happend-SINGLE-WEB-2021-wAx
2021-01-14 21:16:33Trance49DJ_Tomsten-Hot_As_Hell-SINGLE-WEB-2021-wAx
2021-01-14 20:36:04Trance416Prosonik-Dream_Om-(OVNIEP437)-SINGLE-WEB-2021-wAx
2021-01-14 19:27:06Psychedelic643Whiptongue_And_Axial_Tilt-The_Alchemical_Garden-WEB-2020-FALCON_INT
2021-01-14 19:26:40Psychedelic414Waio-Trancelucent_Gravity-SINGLE-WEB-2020-FALCON_INT
2021-01-14 19:26:12Psychedelic17212Volcano-Psychedelic_Collection_Vol.1-WEB-2020-FALCON_INT
2021-01-14 19:25:46Psychedelic15146VA-Rabbit_Hole_Vol._1-WEB-2020-FALCON_INT
2021-01-14 19:25:19Psychedelic21281VA-Nebular_Gateway-Compiled_By_Rigel-WEB-2020-FALCON_INT
2021-01-14 19:24:52Psychedelic12133VA-Game_Of_Tones_Vol._2-Compiled_By_Megapixel-WEB-2020-FALCON_INT
2021-01-14 19:24:24Psychedelic22290VA-Enterrec_Box_Set_Part_2-WEB-2020-FALCON_INT
2021-01-14 19:23:58Psychedelic12103VA-Awareness_Of_Progressive_Vol._6-WEB-2020-FALCON_INT
2021-01-14 19:23:31Psychedelic15168VA-Amazoon-Compiled_By_DJ_Feio-WEB-2020-FALCON_INT
2021-01-14 19:23:03Psychedelic875Triceradrops-Visceral_Intelligence-WEB-2020-FALCON_INT
2021-01-14 19:22:36Psychedelic646The_Trancemancer-Mind_Power-WEB-2020-FALCON_INT
2021-01-14 19:22:09Psychedelic646The_Trancemancer-Mind_Power-SINGLE-WEB-2020-FALCON_INT
2021-01-14 19:21:43Goa532Synchro-Babes_On_Broomsticks_And_Colourblind_Shellfish-WEB-2020-FALCON
2021-01-14 19:21:16Psychedelic412Static_Movement_And_Artmind-Chasing_Stars-SINGLE-WEB-2020-FALCON_INT
2021-01-14 19:20:48Psychedelic12149Space_Cat-Beyond_The_Senses-WEB-2020-FALCON
2021-01-14 19:20:23Psychedelic645Soundrologic-Dopamin_Dealer-WEB-2020-FALCON_INT
2021-01-14 19:19:57Psychedelic761Slip_Hypnotic-Jump_Cables-WEB-2020-FALCON_INT
2021-01-14 19:19:28Psychedelic419Skizologic_And_Vertical-Surreality_Check-SINGLE-WEB-2020-FALCON
2021-01-14 19:19:01Psychedelic415Sharigrama-Hanuman_Goa-SINGLE-WEB-2020-FALCON_INT
2021-01-14 19:18:35Psychedelic13140Sectastral-Reminiscence-WEB-2020-FALCON_INT
2021-01-14 19:18:08Psychedelic414Santosha-Gratido-SINGLE-WEB-2020-FALCON_INT
2021-01-14 19:17:41Psychedelic416Roger_Rabbit-Natural_History-SINGLE-WEB-2020-FALCON
2021-01-14 19:17:15Psychedelic417Reborn-Creatures_In_Space-SINGLE-WEB-2020-FALCON_INT
2021-01-14 19:16:48PsychedelicQuantum_And_E-Mov_Feat._Keren-Maha_Mantra_Knock_Out_Remix-SINGLE-WEB-2020-FALCON_INT
2021-01-14 19:16:21PsychedelicPoxell-Dreamily-WEB-2020-FALCON_INT
2021-01-14 19:15:54Psychedelic49Pegboard_Nerds_Feat._Elizaveta-Hero_Infected_Mushroom_Remix-SINGLE-WEB-2020-FALCON_INT
2021-01-14 19:15:27PsychedelicMorsei_And_West_Galaxy-Transformative_Experience-WEB-2020-FALCON_INT
2021-01-14 19:15:00Psychedelic412Limitless-Last_Option-SINGLE-WEB-2020-FALCON_INT
2021-01-14 19:14:33Psychedelic762Koan-Turbulent_Barbarian-WEB-2020-FALCON_INT
2021-01-14 19:14:05Psychedelic416Itchy_Vibes-Back_To_The_Future-SINGLE-WEB-2020-FALCON_INT
2021-01-14 19:13:40PsychedelicIkon-Mothra-SINGLE-WEB-2020-FALCON_INT
2021-01-14 19:12:20PsychedelicEndeavour-Noise_Engineering-WEB-2020-FALCON_INT
2021-01-14 19:11:26Psychedelic15205Digitalist_And_Friends-Ethereal_Compositions-WEB-2020-FALCON
2021-01-14 19:11:00PsychedelicCykonaut-Arcturian_Fugitive-WEB-2020-FALCON_INT
2021-01-14 18:56:32Trance958Arsen_and_Cyan_ft._ShaR4_-_My_Soldier-(ASH005)-WEB-2021-JUSTiFY_iNT
2021-01-14 18:54:18Trance622Apollo_Nash_-_Orion_Station-(IND046)-WEB-2021-JUSTiFY_iNT
2021-01-14 18:54:10Trance626Angel_Desviat_-_Artic-(VGR013)-WEB-2021-JUSTiFY_iNT
2021-01-14 15:04:16Trance58Tony_Brown_and_Commander_Tom_feat_Lola_-_Trance_Experience-(3616551492767)-SINGLE-WEB-2021-ZzZz
2021-01-14 14:29:05Trance514Gayax-Etheric_Echoes-(AURALSN180)-SINGLE-WEB-2021-AFO
2021-01-14 14:28:46Trance948Arsen_and_Cyan_ft_ShaR4-My_Solider-(ASH005)-WEB-2021-AFO
2021-01-14 14:27:51Trance511iLLum-Topology-(AS1380118)-SINGLE-WEB-2021-AFO
2021-01-14 14:27:33Trance513DJ_Geri-Delhi-(ASPROG116)-SINGLE-WEB-2021-AFO
2021-01-14 14:26:15Trance16152VA-Undiscovered_Gems_Vol_2-(SNS153)-WEB-2021-AFO
2021-01-14 14:23:22Trance513tranzLift_and_Alternate_High-Arcturus_(Alternate_High_Extended_Mix)-(BTSR376)-SINGLE-WEB-2021-AFO
2021-01-14 14:21:07Trance514Syn_Drome-Mentally-(YV180)-SINGLE-WEB-2021-AFO
2021-01-14 14:20:45Trance510Elenski-Miracles_In_Hell-(YL138)-SINGLE-WEB-2021-AFO
2021-01-14 14:20:30Trance845Leo_Van_Goch_and_The_Sixth_Sense_ft_Sevda_B-Blinding_Lights-(NIX190)-WEB-2020-AFO
2021-01-14 14:12:48TranceVA-Nukleuz_Power_Trance_Anthems_Vol_1-(2000WNUK)-WEB-2012-COS_INT
2021-01-14 14:11:45TranceVA-Nukleuz_Vocal_Trance_Vol._2-(1934WNUK)-WEB-2012-COS_INT
2021-01-14 14:11:00TranceVA-Nukleuz_Vocal_Trance_Vol._1-(1927WNUK)-WEB-2011-COS_INT
2021-01-14 14:10:04TranceVA-Nukleuz_Pure_Trance_Vol._4-(1922WNUK)-WEB-2011-COS_INT
2021-01-14 14:09:07TranceVA-Nukleuz_Pure_Trance_Vol._3-(1921WNUK)-WEB-2011-COS_INT